{"data":{"norad_id":57817,"epoch":"2026-09-20T06:31:18.053472Z","epoch_age_seconds":154449,"freshness":"FRESH","line1":"1 57817U 23138K   26263.27173673  .00009375  00000+0  34967-3 0  9995","line2":"2 57817  43.0012 215.5831 0001470 269.2265  90.8418 15.27588155168494","mean_motion":15.27588155,"eccentricity":0.000147,"inclination_deg":43.0012,"raan_deg":215.5831,"arg_perigee_deg":269.2265,"mean_anomaly_deg":90.8418,"bstar":0.00034967,"rev_number":16849,"period_min":94.266245472426,"perigee_km":482.016086378,"apogee_km":484.03326791108,"semimajor_km":6861.1616771445,"source":"CELESTRAK","updated_at":"2026-09-21T09:00:33.708371Z"}}